Regional Weather Roundup
Issued by NWS

Current Version | Previous Version | Text Only | Print | Product List | Glossary On
Versions: 1 2 3 4 5 6 7 8 9 10 11 12 13 14 15 16 17 18 19 20 21 22 23 24 25 26 27
000
ASUS45 KPSR 221510
RWRAZ

ARIZONA HOURLY REGIONAL WEATHER ROUNDUP
NATIONAL WEATHER SERVICE PHOENIX AZ
800 AM MST TUE AUG 22 2017

NOTE: FAIR INDICATES FEW OR NO CLOUDS BELOW 12,000 FEET WITH NO
SIGNIFICANT WEATHER AND/OR OBSTRUCTIONS TO VISIBILITY.

AZZ001>003-036-221600-
NORTHWEST ARIZONA

CITY           SKY/WX    TMP DP  RH WIND       PRES   REMARKS
BULLHEAD CITY  SUNNY     82  57  42 SW3       29.98R
KINGMAN        MOSUNNY   73  56  54 NE6       30.17R
$$

AZZ004>008-015-016-018-221600-
NORTH CENTRAL ARIZONA

CITY           SKY/WX    TMP DP  RH WIND       PRES   REMARKS
GRAND CANYON   MOSUNNY   65  53  65 NE5       30.39R
WILLIAMS       SUNNY     64  52  63 CALM      30.38R
PRESCOTT       SUNNY     69  53  56 CALM      30.28R
FLAGSTAFF      SUNNY     63  54  72 CALM      30.41R
PAYSON           N/A     73  52  46 NE5       30.27S
PAGE           PTSUNNY   73  55  53 SW6       30.25R
$$

AZZ009>014-017-221600-
NORTHEAST ARIZONA

CITY           SKY/WX    TMP DP  RH WIND       PRES   REMARKS
WINSLOW        MOSUNNY   74  51  44 NW6       30.28R
SAINT JOHNS    SUNNY     69  50  50 CALM      30.32R
WINDOW ROCK    SUNNY     63  51  65 CALM      30.40R
SHOW LOW       SUNNY     68  52  56 CALM      30.37R
$$

AZZ540-542>544-546-548-221600-
GREATER PHOENIX AREA

CITY           SKY/WX    TMP DP  RH WIND       PRES   REMARKS
PHOENIX        MOSUNNY   88  55  32 E6        29.96R
BUCKEYE        SUNNY     88  52  29 N8        29.96R
GLENDALE       MOSUNNY   88  57  35 CALM      29.98R
LUKE AFB       SUNNY     87  57  35 N3        29.95R
DEER VALLEY    SUNNY     88  56  33 E3        29.97R
SCOTTSDALE     SUNNY     86  57  37 VRB3      30.00R
MESA-FALCON    MOSUNNY   88  55  33 E3        29.99R
MESA-GATEWAY   MOSUNNY   82  55  39 SE6       29.99R
CHANDLER       MOSUNNY   84  57  39 CALM      29.98R
$$

AZZ539-553-221600-
SOUTHWEST MARICOPA COUNTY AND PINAL COUNTY

CITY           SKY/WX    TMP DP  RH WIND       PRES   REMARKS
CASA GRANDE    MOSUNNY   84  55  36 N3        29.99R
GILA BEND      FAIR      90  49  24 CALM      29.95R
$$

AZZ503-504-507>509-221600-
SOUTHEAST ARIZONA

CITY           SKY/WX    TMP DP  RH WIND       PRES   REMARKS
TUCSON         SUNNY    N/A N/A N/A SE8       30.09R
DAVIS-MONTHAN  SUNNY     82  57  41 SE8       30.08R
RYAN FIELD     SUNNY     81  55  41 CALM      30.08R
NOGALES        SUNNY     75  62  64 CALM      30.17R
SIERRA VISTA   SUNNY     78  52  39 CALM      30.24R
DOUGLAS        SUNNY     73  60  63 S3        30.20R
SAFFORD        SUNNY     78  55  44 CALM      30.12R
$$

AZZ532-221600-
SOUTHWEST ARIZONA

CITY           SKY/WX    TMP DP  RH WIND       PRES   REMARKS
YUMA           MOSUNNY   91  55  29 CALM      29.91R
$$

CAZ041-043-047-048-061-525>527-560>570-221600-
SOUTHERN CALIFORNIA

CITY           SKY/WX    TMP DP  RH WIND       PRES   REMARKS
DOWNTOWN L.A.  CLOUDY    69  63  81 CALM      30.01R
L.A. AIRPORT   MOSUNNY   68  64  87 W5        30.02R
SAN DIEGO      CLOUDY    70  63  78 NW3       30.04R
BURBANK        SUNNY     66  54  65 CALM      30.02R
ONTARIO        SUNNY     66  59  78 CALM      30.03R
RIVERSIDE      SUNNY     65  61  87 W6        30.03R
PALM SPRINGS   SUNNY     89  46  22 NW9       29.95R
EL CENTRO NAS  SUNNY     84  44  24 CALM      29.91R
IMPERIAL       MOSUNNY   85  53  33 W5        29.89R
BLYTHE         SUNNY     87  58  37 CALM      29.93R
NEEDLES        SUNNY     87  54  32 N3        29.99R
$$

NVZ020-UTZ003-221600-
SOUTHERN NEVADA-UTAH

CITY           SKY/WX    TMP DP  RH WIND       PRES   REMARKS
LAS VEGAS      MOSUNNY   83  54  36 CALM      30.09R
SALT LAKE CITY PTSUNNY   77  49  37 SE13      30.21R
$$

NMZ009-TXZ055-221600-
NEW MEXICO-WEST TEXAS

CITY           SKY/WX    TMP DP  RH WIND       PRES   REMARKS
ALBUQUERQUE    MOSUNNY   69  54  58 N6        30.32R
EL PASO        MOSUNNY   78  66  66 CALM      30.19R
$$


........................KEY........................
SKY/WX - SKY CONDITION/WEATHER
TMP    - TEMPERATURE IN FAHRENHEIT
DP     - DEW POINT IN FAHRENHEIT
RH     - RELATIVE HUMIDITY IN PERCENT
WIND   - DIRECTION AND SPEED IN MILES PER HOUR (MPH)
VRB    - VARIABLE WIND DIRECTION
PRES   - MEAN SEA LEVEL PRESSURE IN INCHES OF MERCURY
         F - FALLING PRESSURE   R - RISING PRESSURE
         S - STEADY PRESSURE
VSB    - VISIBILITY IN MILES
HX     - HEAT INDEX IN FAHRENHEIT
WCI    - WIND CHILL INDEX IN FAHRENHEIT
TC     - TEMPERATURE IN CELSIUS WHICH IS ALSO KNOWN AS
         TEMPERATURE IN CENTIGRADE
AFB    - AIR FORCE BASE
         LUKE AFB IS LUKE AIR FORCE BASE
         DAVIS-MONTHAN IS DAVIS-MONTHAN AIR FORCE BASE
NAS    - NAVAL AIR STATION
         EL CENTRO NAS IS EL CENTRO NAVAL AIR STATION
N/A    - NOT AVAILABLE





USA.gov is the U.S. government's official web portal to all federal, state and local government web resources and services.